Flag for Israel Weather past 2 weeks in Safed, Israel

Now
66 °F

Passing clouds.


Feels Like: 66 °F
Forecast: 51 / 68 °F
Wind: 6 mph from Northwest

Location: Beirut Airport


UV Index: 7 (High)

Visibility: 5 mi


Pressure: 29.98 "Hg

Humidity: 88%

Dew point: 63 °F

Location of SafedLocation

Historic Weather in Safed

°F

Safed temperature yesterday

Maximum temperature yesterday: 86 °F (at 3:00 PM)
Minimum temperature yesterday: 68 °F (at 3:00 AM)
Average temperature yesterday: 74 °F

Past Weeks' High & Low Weather Summary

 TemperatureHumidityPressure
High86 °F (Apr 19, 3:00 PM)88% (Apr 13, 12:00 AM)30.15 "Hg (Apr 13, 12:00 AM)
Low59 °F (Apr 6, 6:00 AM)18% (Apr 6, 2:00 PM)29.80 "Hg (Apr 17, 6:00 AM)
Average68 °F63%29.98 "Hg
* Reported Apr 5 9:00 PM — Apr 20 9:00 PM, Safed, Weather by CustomWeather, © 2014

Note: Actual official high and low records may vary slightly from our data, if they occured in-between our weather recording intervals... More about our weather records

Advertising

Historic Weather Conditions — Data for Previous 24 hours

 ConditionsComfort  
Time TempWeatherWind HumidityBarometerVisibility
9:00 PM
Apr 20
66 °FPassing clouds.6 mph88%29.95 "Hg4 mi
8:00 PM66 °FPassing clouds.7 mph88%29.95 "Hg5 mi
7:00 PM72 °FScattered clouds.7 mph69%29.92 "Hg5 mi
6:00 PM75 °FPassing clouds.7 mph61%29.92 "HgN/A
5:00 PM77 °FPassing clouds.6 mph57%29.92 "HgN/A
4:00 PM75 °FPassing clouds.8 mph61%29.95 "HgN/A
3:00 PM75 °FPassing clouds.10 mph65%29.95 "HgN/A
2:00 PM75 °FPassing clouds.9 mph65%29.95 "HgN/A
1:00 PM73 °FPassing clouds.10 mph65%29.98 "Hg4 mi
12:00 PM72 °FScattered clouds.13 mph73%29.95 "Hg5 mi
11:00 AM70 °FPartly sunny.7 mph78%29.95 "Hg5 mi
10:00 AM73 °FBroken clouds.7 mph50%29.95 "Hg5 mi
9:00 AM72 °FBroken clouds.14 mph65%29.92 "Hg5 mi
8:00 AM68 °FRain. Scattered clouds.10 mph83%30.01 "Hg4 mi
7:00 AM68 °FPartly cloudy.2 mph69%29.92 "Hg5 mi
6:00 AM70 °FPartly cloudy.9 mph64%29.92 "Hg5 mi
5:00 AM70 °FPassing clouds.10 mph64%29.95 "Hg5 mi
4:00 AM70 °FPassing clouds.8 mph64%29.95 "Hg5 mi
3:00 AM70 °FPassing clouds.9 mph64%29.95 "Hg5 mi
2:00 AM72 °FPassing clouds.10 mph61%29.95 "Hg5 mi
1:00 AM72 °FPassing clouds.12 mph61%29.98 "Hg5 mi
12:00 AM72 °FPassing clouds.7 mph57%29.98 "Hg5 mi
11:00 PM
Apr 19
73 °FPassing clouds.2 mph53%29.98 "Hg5 mi
Weather by CustomWeather, © 2014

See weather overview